Hourly Weather Aespa

Today, 7 March, Sunday

Time Temperature Precipitation Wind Pressure Humidity
00:00 -4°C° 0.1 mm 7 mps 741 mmHg 74%
01:00 -6°C° 0.1 mm 7 mps 741 mmHg 65%
02:00 -5°C° 0 mm 5 mps 741 mmHg 58%
03:00 -6°C° 0 mm 6 mps 741 mmHg 57%
04:00 -6°C° 0 mm 6 mps 740 mmHg 56%
05:00 -8°C° 0 mm 7 mps 740 mmHg 55%
06:00 -8°C° 0.1 mm 7 mps 740 mmHg 55%
07:00 -8°C° 0.1 mm 7 mps 739 mmHg 54%
08:00 -7°C° 0 mm 7 mps 739 mmHg 57%
09:00 -7°C° 0 mm 7 mps 739 mmHg 58%
10:00 -7°C° 0 mm 8 mps 740 mmHg 59%
11:00 -6°C° 0 mm 8 mps 740 mmHg 60%
12:00 -6°C° 0.1 mm 8 mps 740 mmHg 65%
13:00 -6°C° 0.1 mm 8 mps 740 mmHg 71%
14:00 -6°C° 0.1 mm 7 mps 741 mmHg 77%
15:00 -6°C° 0.2 mm 7 mps 741 mmHg 78%
16:00 -6°C° 0.2 mm 6 mps 741 mmHg 80%
17:00 -6°C° 0.2 mm 6 mps 742 mmHg 81%
18:00 -6°C° 0.2 mm 6 mps 742 mmHg 81%
19:00 -6°C° 0.2 mm 6 mps 743 mmHg 81%
20:00 -8°C° 0.2 mm 6 mps 744 mmHg 81%
21:00 -8°C° 0.1 mm 6 mps 745 mmHg 81%
22:00 -8°C° 0.1 mm 5 mps 746 mmHg 80%
23:00 -8°C° 0.1 mm 5 mps 747 mmHg 79%

Tomorrow, 8 March, Monday

Time Temperature Precipitation Wind Pressure Humidity
00:00 -8°C° 0 mm 5 mps 748 mmHg 81%
01:00 -10°C° 0 mm 5 mps 749 mmHg 83%
02:00 -10°C° 0 mm 6 mps 749 mmHg 85%
03:00 -10°C° 0.1 mm 5 mps 750 mmHg 85%
04:00 -11°C° 0.1 mm 5 mps 750 mmHg 85%
05:00 -11°C° 0.1 mm 5 mps 751 mmHg 85%
06:00 -11°C° 0 mm 5 mps 752 mmHg 83%
07:00 -10°C° 0 mm 4 mps 752 mmHg 82%
08:00 -10°C° 0 mm 4 mps 753 mmHg 80%
09:00 -10°C° 0 mm 4 mps 754 mmHg 77%
10:00 -9°C° 0 mm 4 mps 754 mmHg 73%
11:00 -8°C° 0 mm 4 mps 755 mmHg 70%
12:00 -8°C° 0 mm 4 mps 755 mmHg 67%
13:00 -8°C° 0 mm 4 mps 756 mmHg 64%
14:00 -6°C° 0 mm 3 mps 756 mmHg 61%
15:00 -6°C° 0 mm 3 mps 756 mmHg 61%
16:00 -7°C° 0 mm 3 mps 756 mmHg 60%
17:00 -6°C° 0 mm 2 mps 757 mmHg 60%
18:00 -7°C° 0 mm 2 mps 757 mmHg 64%
19:00 -7°C° 0 mm 1 mps 757 mmHg 67%
20:00 -7°C° 0 mm 1 mps 757 mmHg 71%
21:00 -7°C° 0 mm 1 mps 758 mmHg 72%
22:00 -7°C° 0 mm 1 mps 758 mmHg 73%
23:00 -7°C° 0 mm 0 mps 758 mmHg 75%

Day after tomorrow, 9 March, Tuesday

Time Temperature Precipitation Wind Pressure Humidity
00:00 -7°C° 0 mm 1 mps 758 mmHg 76%
01:00 -7°C° 0 mm 1 mps 758 mmHg 78%
02:00 -7°C° 0 mm 1 mps 758 mmHg 80%
03:00 -8°C° 0 mm 2 mps 757 mmHg 80%
04:00 -7°C° 0 mm 2 mps 757 mmHg 81%
05:00 -8°C° 0 mm 3 mps 757 mmHg 81%
06:00 -7°C° 0 mm 3 mps 756 mmHg 80%
07:00 -8°C° 0 mm 4 mps 756 mmHg 79%
08:00 -7°C° 0 mm 4 mps 756 mmHg 78%
09:00 -6°C° 0 mm 5 mps 756 mmHg 74%
10:00 -4°C° 0 mm 5 mps 755 mmHg 71%
11:00 -2°C° 0 mm 5 mps 755 mmHg 67%
12:00 -2°C° 0.1 mm 5 mps 755 mmHg 71%
13:00 -2°C° 0.1 mm 5 mps 755 mmHg 74%
14:00 -2°C° 0.1 mm 5 mps 755 mmHg 78%
15:00 -3°C° 0.4 mm 4 mps 755 mmHg 82%
16:00 -3°C° 0.4 mm 4 mps 755 mmHg 87%
17:00 -4°C° 0.4 mm 3 mps 755 mmHg 91%
18:00 -5°C° 0.3 mm 3 mps 756 mmHg 92%
19:00 -5°C° 0.3 mm 4 mps 756 mmHg 94%
20:00 -7°C° 0.3 mm 4 mps 756 mmHg 95%
21:00 -8°C° 0.2 mm 5 mps 757 mmHg 92%
22:00 -11°C° 0.2 mm 5 mps 757 mmHg 90%
23:00 -12°C° 0.2 mm 6 mps 758 mmHg 87%

10 March, Wednesday

Time Temperature Precipitation Wind Pressure Humidity
00:00 -14°C° 0 mm 6 mps 758 mmHg 87%
01:00 -13°C° 0 mm 5 mps 759 mmHg 87%
02:00 -14°C° 0 mm 5 mps 759 mmHg 87%
03:00 -14°C° 0 mm 5 mps 759 mmHg 87%
04:00 -15°C° 0 mm 5 mps 760 mmHg 87%
05:00 -15°C° 0 mm 5 mps 760 mmHg 87%
06:00 -17°C° 0 mm 5 mps 760 mmHg 86%
07:00 -17°C° 0 mm 5 mps 761 mmHg 84%
08:00 -17°C° 0 mm 5 mps 761 mmHg 82%
09:00 -15°C° 0 mm 4 mps 761 mmHg 78%
10:00 -14°C° 0 mm 4 mps 762 mmHg 73%
11:00 -11°C° 0 mm 4 mps 762 mmHg 69%
12:00 -11°C° 0 mm 4 mps 762 mmHg 67%
13:00 -10°C° 0 mm 4 mps 762 mmHg 64%
14:00 -9°C° 0 mm 4 mps 762 mmHg 62%
15:00 -9°C° 0 mm 4 mps 762 mmHg 65%
16:00 -10°C° 0 mm 4 mps 762 mmHg 68%
17:00 -9°C° 0 mm 3 mps 762 mmHg 72%
18:00 -10°C° 0 mm 3 mps 762 mmHg 76%
19:00 -12°C° 0 mm 3 mps 762 mmHg 81%
20:00 -12°C° 0 mm 2 mps 762 mmHg 85%
21:00 -14°C° 0 mm 3 mps 761 mmHg 83%
22:00 -14°C° 0 mm 3 mps 761 mmHg 82%
23:00 -15°C° 0 mm 4 mps 761 mmHg 80%

11 March, Thursday

Time Temperature Precipitation Wind Pressure Humidity
00:00 -15°C° 0 mm 3 mps 761 mmHg 83%
01:00 -15°C° 0 mm 3 mps 761 mmHg 85%
02:00 -15°C° 0 mm 3 mps 760 mmHg 87%
03:00 -16°C° 0 mm 3 mps 760 mmHg 88%
04:00 -16°C° 0 mm 3 mps 759 mmHg 89%
05:00 -17°C° 0 mm 4 mps 758 mmHg 90%
06:00 -17°C° 0 mm 4 mps 758 mmHg 90%
07:00 -17°C° 0 mm 4 mps 757 mmHg 90%
08:00 -16°C° 0 mm 4 mps 757 mmHg 90%
09:00 -15°C° 0 mm 5 mps 756 mmHg 87%
10:00 -13°C° 0 mm 5 mps 755 mmHg 84%
11:00 -12°C° 0 mm 5 mps 754 mmHg 81%
12:00 -10°C° 0 mm 5 mps 753 mmHg 78%
13:00 -9°C° 0 mm 6 mps 752 mmHg 75%
14:00 -6°C° 0 mm 6 mps 751 mmHg 73%
15:00 -6°C° 0 mm 6 mps 750 mmHg 72%
16:00 -5°C° 0 mm 6 mps 749 mmHg 71%
17:00 -6°C° 0 mm 7 mps 748 mmHg 70%
18:00 -6°C° 0 mm 7 mps 746 mmHg 70%
19:00 -6°C° 0 mm 8 mps 745 mmHg 70%
20:00 -6°C° 0 mm 8 mps 744 mmHg 70%
21:00 -6°C° 0.3 mm 8 mps 743 mmHg 77%
22:00 -6°C° 0.3 mm 8 mps 742 mmHg 84%
23:00 -6°C° 0.3 mm 9 mps 740 mmHg 91%

12 March, Friday

Time Temperature Precipitation Wind Pressure Humidity
00:00 -6°C° 0.7 mm 8 mps 739 mmHg 92%
01:00 -6°C° 0.7 mm 8 mps 738 mmHg 92%
02:00 -5°C° 0.7 mm 8 mps 737 mmHg 93%
03:00 -5°C° 0.4 mm 8 mps 737 mmHg 93%
04:00 -4°C° 0.4 mm 7 mps 736 mmHg 94%
05:00 -3°C° 0.4 mm 7 mps 735 mmHg 95%
06:00 -3°C° 0.4 mm 6 mps 735 mmHg 95%
07:00 -1°C° 0.4 mm 5 mps 735 mmHg 96%
08:00 -1°C° 0.4 mm 5 mps 735 mmHg 97%
09:00 0°C° 0.1 mm 5 mps 735 mmHg 96%
10:00 0°C° 0.1 mm 5 mps 735 mmHg 96%
11:00 0°C° 0.1 mm 4 mps 735 mmHg 95%
12:00 0°C° 0 mm 4 mps 735 mmHg 95%
13:00 0°C° 0 mm 5 mps 735 mmHg 95%
14:00 0°C° 0 mm 5 mps 735 mmHg 94%
15:00 0°C° 0 mm 5 mps 735 mmHg 94%
16:00 0°C° 0 mm 5 mps 735 mmHg 93%
17:00 0°C° 0 mm 5 mps 735 mmHg 93%
18:00 0°C° 0.1 mm 5 mps 735 mmHg 94%
19:00 0°C° 0.1 mm 4 mps 735 mmHg 96%
20:00 -1°C° 0.1 mm 4 mps 735 mmHg 97%
21:00 0°C° 0.1 mm 4 mps 735 mmHg 96%
22:00 0°C° 0.1 mm 4 mps 735 mmHg 95%
23:00 0°C° 0.1 mm 4 mps 735 mmHg 94%
Show more